| time (UTC) | temp F | wind direction | speed MPH | gust MPH | rain 1hr in | rain 24hr in | rain mn in | humidity % | barometer mb |
| 20260504044555 | 68 | 174 | 5.0 | 10.0 | 0.00 | 0.00 | 0.00 | 51 | 1007.2 |
| 20260504044526 | 61 | 155 | 0.0 | 0.0 | 0.00 | 0.00 | 0.00 | 75 | 1014.5 |
| 20260504043041 | 67 | 106 | 3.0 | 6.0 | 0.00 | 0.00 | 0.00 | 55 | 1008.1 |
| 20260504043026 | 61 | 155 | 0.0 | 0.0 | 0.00 | 0.00 | 0.00 | 75 | 1014.4 |
| 20260504041538 | 67 | 354 | 2.0 | 9.0 | 0.00 | 0.00 | 0.00 | 58 | 1008.9 |
| 20260504041526 | 62 | 155 | 0.0 | 0.0 | 0.00 | 0.00 | 0.00 | 75 | 1014.2 |
| 20260504040038 | 65 | 324 | 6.0 | 11.0 | 0.00 | 0.00 | 0.00 | 65 | 1008.8 |
| 20260504040025 | 62 | 154 | 0.0 | 0.0 | 0.00 | 0.00 | 0.00 | 76 | 1013.9 |
| 20260504034545 | 64 | 187 | 1.0 | 3.0 | 0.00 | 0.00 | 0.00 | 69 | 1008.3 |
| 20260504034524 | 62 | 153 | 0.0 | 0.0 | 0.00 | 0.00 | 0.00 | 76 | 1013.9 |
| 20260504033050 | 64 | 239 | 0.0 | 2.0 | 0.00 | 0.00 | 0.00 | 68 | 1008.6 |
| 20260504033024 | 62 | 150 | 0.0 | 0.0 | 0.00 | 0.00 | 0.00 | 76 | 1013.7 |
| 20260504031537 | 64 | 239 | 1.0 | 2.0 | 0.00 | 0.00 | 0.00 | 70 | 1008.4 |
| 20260504031524 | 62 | 132 | 0.0 | 0.0 | 0.00 | 0.00 | 0.00 | 74 | 1013.5 |
| 20260504030036 | 64 | 326 | 0.0 | 2.0 | 0.00 | 0.00 | 0.00 | 67 | 1008.9 |
| 20260504030023 | 62 | 194 | 0.0 | 0.0 | 0.00 | 0.00 | 0.00 | 72 | 1013.3 |
| 20260504024535 | 64 | 326 | 1.0 | 2.0 | 0.00 | 0.00 | 0.00 | 69 | 1008.4 |
| 20260504024523 | 62 | 165 | 0.0 | 0.0 | 0.00 | 0.00 | 0.00 | 71 | 1013.2 |
| 20260504023036 | 65 | 220 | 0.0 | 3.0 | 0.00 | 0.00 | 0.00 | 68 | 1008.4 |
| 20260504023023 | 62 | 150 | 0.0 | 0.0 | 0.00 | 0.00 | 0.00 | 71 | 1013.2 |
| 20260504021536 | 65 | 157 | 0.0 | 2.0 | 0.00 | 0.00 | 0.00 | 66 | 1008.2 |
| 20260504021522 | 63 | 152 | 0.0 | 0.0 | 0.00 | 0.00 | 0.00 | 69 | 1013.1 |
| 20260504020035 | 66 | 25 | 0.0 | 0.0 | 0.00 | 0.00 | 0.00 | 64 | 1008.1 |
| 20260504020028 | 64 | 159 | 0.0 | 0.0 | 0.00 | 0.00 | 0.00 | 67 | 1012.8 |
| 20260504014538 | 64 | 180 | 0.0 | 1.0 | 0.00 | 0.00 | 0.00 | 67 | 1012.6 |
| 20260504014536 | 67 | 25 | 0.0 | 0.0 | 0.00 | 0.00 | 0.00 | 62 | 1008.1 |
| 20260504013037 | 68 | 25 | 0.0 | 0.0 | 0.00 | 0.00 | 0.00 | 59 | 1008.1 |
| 20260504013020 | 65 | 155 | 0.0 | 0.0 | 0.00 | 0.00 | 0.00 | 64 | 1012.3 |
| 20260504011533 | 70 | 26 | 0.0 | 0.0 | 0.00 | 0.00 | 0.00 | 60 | 1008.0 |
| 20260504011520 | 65 | 169 | 0.0 | 0.0 | 0.00 | 0.00 | 0.00 | 64 | 1012.2 |
| 20260504010041 | 72 | 45 | 0.0 | 1.0 | 0.00 | 0.00 | 0.00 | 53 | 1008.1 |
| 20260504010019 | 65 | 152 | 0.0 | 0.0 | 0.00 | 0.00 | 0.00 | 65 | 1012.2 |
| 20260504004530 | 73 | 51 | 0.0 | 0.0 | 0.00 | 0.00 | 0.00 | 51 | 1008.2 |
| 20260504004518 | 65 | 18 | 0.0 | 0.0 | 0.00 | 0.00 | 0.00 | 68 | 1012.1 |
| 20260504003030 | 74 | 114 | 0.0 | 2.0 | 0.00 | 0.00 | 0.00 | 47 | 1008.3 |
| 20260504003017 | 66 | 180 | 0.0 | 0.0 | 0.00 | 0.00 | 0.00 | 66 | 1012.1 |
| 20260504001528 | 76 | 23 | 0.0 | 1.0 | 0.00 | 0.00 | 0.00 | 41 | 1008.4 |
| 20260504001518 | 66 | 144 | 0.0 | 0.0 | 0.00 | 0.00 | 0.00 | 65 | 1012.1 |
| 20260504000034 | 66 | 65 | 0.0 | 0.0 | 0.00 | 0.00 | 0.00 | 65 | 1011.8 |
| 20260504000026 | 77 | 24 | 0.0 | 3.0 | 0.00 | 0.00 | 0.00 | 40 | 1008.5 |
| 20260503234526 | 77 | 330 | 1.0 | 6.0 | 0.00 | 0.00 | 0.00 | 39 | 1008.7 |
| 20260503234516 | 67 | 184 | 0.0 | 0.0 | 0.00 | 0.00 | 0.00 | 63 | 1011.8 |
| 20260503233114 | 67 | 148 | 0.0 | 0.0 | 0.00 | 0.00 | 0.00 | 62 | 1011.8 |
| 20260503233024 | 78 | 325 | 2.0 | 5.0 | 0.00 | 0.00 | 0.00 | 35 | 1008.9 |
| 20260503231522 | 79 | 253 | 4.0 | 8.0 | 0.00 | 0.00 | 0.00 | 34 | 1008.9 |
| 20260503231513 | 67 | 149 | 0.0 | 0.0 | 0.00 | 0.00 | 0.00 | 61 | 1012.1 |
| 20260503230021 | 79 | 289 | 2.0 | 9.0 | 0.00 | 0.00 | 0.00 | 34 | 1009.1 |
| 20260503230012 | 68 | 138 | 0.0 | 1.0 | 0.00 | 0.00 | 0.00 | 62 | 1012.3 |
| 20260503224519 | 79 | 272 | 4.0 | 11.0 | 0.00 | 0.00 | 0.00 | 33 | 1009.3 |
| 20260503224512 | 68 | 117 | 0.0 | 0.0 | 0.00 | 0.00 | 0.00 | 60 | 1012.4 |
| 20260503223018 | 79 | 218 | 6.0 | 15.0 | 0.00 | 0.00 | 0.00 | 32 | 1009.3 |
| 20260503223010 | 68 | 219 | 0.0 | 0.0 | 0.00 | 0.00 | 0.00 | 60 | 1012.4 |
| 20260503221528 | 79 | 336 | 3.0 | 12.0 | 0.00 | 0.00 | 0.00 | 33 | 1009.4 |
| 20260503221509 | 69 | 142 | 0.0 | 1.0 | 0.00 | 0.00 | 0.00 | 58 | 1012.5 |
| 20260503220018 | 80 | 204 | 4.0 | 10.0 | 0.00 | 0.00 | 0.00 | 32 | 1009.6 |
| 20260503220008 | 69 | 224 | 0.0 | 1.0 | 0.00 | 0.00 | 0.00 | 59 | 1012.7 |
| 20260503214520 | 69 | 150 | 0.0 | 0.0 | 0.00 | 0.00 | 0.00 | 58 | 1012.8 |
| 20260503214515 | 80 | 241 | 4.0 | 11.0 | 0.00 | 0.00 | 0.00 | 33 | 1009.7 |
| 20260503213026 | 80 | 323 | 5.0 | 12.0 | 0.00 | 0.00 | 0.00 | 34 | 1009.9 |
| 20260503213005 | 68 | 150 | 0.0 | 4.0 | 0.00 | 0.00 | 0.00 | 58 | 1012.9 |
| 20260503211517 | 79 | 135 | 3.0 | 13.0 | 0.00 | 0.00 | 0.00 | 33 | 1010.0 |
| 20260503211506 | 69 | 159 | 0.0 | 1.0 | 0.00 | 0.00 | 0.00 | 58 | 1012.9 |
| 20260503210011 | 69 | 195 | 0.0 | 0.0 | 0.00 | 0.00 | 0.00 | 58 | 1012.9 |
| 20260503210009 | 79 | 185 | 4.0 | 11.0 | 0.00 | 0.00 | 0.00 | 34 | 1010.1 |
| 20260503204508 | 79 | 257 | 7.0 | 11.0 | 0.00 | 0.00 | 0.00 | 35 | 1010.4 |
| 20260503204506 | 70 | 153 | 0.0 | 1.0 | 0.00 | 0.00 | 0.00 | 59 | 1012.9 |
| 20260503203107 | 69 | 146 | 0.0 | 0.0 | 0.00 | 0.00 | 0.00 | 62 | 1012.9 |
| 20260503203006 | 79 | 327 | 3.0 | 11.0 | 0.00 | 0.00 | 0.00 | 37 | 1010.5 |
| 20260503201558 | 68 | 144 | 0.0 | 0.0 | 0.00 | 0.00 | 0.00 | 63 | 1013.1 |
| 20260503201505 | 79 | 258 | 4.0 | 15.0 | 0.00 | 0.00 | 0.00 | 36 | 1010.8 |
| 20260503200053 | 67 | 106 | 0.0 | 0.0 | 0.00 | 0.00 | 0.00 | 66 | 1013.2 |
| 20260503200002 | 79 | 210 | 7.0 | 15.0 | 0.00 | 0.00 | 0.00 | 35 | 1010.9 |
| 20260503194607 | 66 | 163 | 0.0 | 0.0 | 0.00 | 0.00 | 0.00 | 67 | 1013.5 |
| 20260503194503 | 79 | 262 | 5.0 | 11.0 | 0.00 | 0.00 | 0.00 | 36 | 1011.1 |
| 20260503193118 | 78 | 206 | 4.0 | 14.0 | 0.00 | 0.00 | 0.00 | 37 | 1011.2 |
| 20260503193048 | 65 | 150 | 0.0 | 0.0 | 0.00 | 0.00 | 0.00 | 68 | 1013.7 |
| 20260503191559 | 78 | 220 | 4.0 | 10.0 | 0.00 | 0.00 | 0.00 | 36 | 1011.3 |
| 20260503191545 | 64 | 144 | 0.0 | 0.0 | 0.00 | 0.00 | 0.00 | 68 | 1013.9 |
| 20260503190053 | 77 | 231 | 6.0 | 13.0 | 0.00 | 0.00 | 0.00 | 37 | 1011.4 |
| 20260503190049 | 64 | 139 | 0.0 | 0.0 | 0.00 | 0.00 | 0.00 | 68 | 1014.0 |
| 20260503184549 | 76 | 11 | 2.0 | 12.0 | 0.00 | 0.00 | 0.00 | 40 | 1011.6 |
| 20260503184542 | 64 | 139 | 0.0 | 0.0 | 0.00 | 0.00 | 0.00 | 70 | 1014.1 |
| 20260503183047 | 75 | 291 | 8.0 | 18.0 | 0.00 | 0.00 | 0.00 | 41 | 1012.0 |
| 20260503183045 | 63 | 144 | 0.0 | 0.0 | 0.00 | 0.00 | 0.00 | 71 | 1014.4 |
| 20260503181615 | 75 | 220 | 9.0 | 18.0 | 0.00 | 0.00 | 0.00 | 42 | 1012.3 |
| 20260503181539 | 63 | 138 | 0.0 | 0.0 | 0.00 | 0.00 | 0.00 | 71 | 1014.4 |
| 20260503180043 | 74 | 278 | 7.0 | 19.0 | 0.00 | 0.00 | 0.00 | 42 | 1012.6 |
| 20260503180038 | 63 | 153 | 0.0 | 0.0 | 0.00 | 0.00 | 0.00 | 72 | 1014.4 |
| 20260503174539 | 73 | 231 | 7.0 | 18.0 | 0.00 | 0.00 | 0.00 | 43 | 1013.0 |
| 20260503174536 | 63 | 167 | 0.0 | 0.0 | 0.00 | 0.00 | 0.00 | 74 | 1014.3 |
| 20260503173058 | 63 | 127 | 0.0 | 0.0 | 0.00 | 0.00 | 0.00 | 75 | 1014.2 |
| 20260503173050 | 73 | 190 | 8.0 | 18.0 | 0.00 | 0.00 | 0.00 | 43 | 1013.0 |
| 20260503171535 | 63 | 140 | 0.0 | 0.0 | 0.00 | 0.00 | 0.00 | 75 | 1014.0 |
| 20260503171531 | 72 | 286 | 8.0 | 20.0 | 0.00 | 0.00 | 0.00 | 44 | 1013.2 |
| 20260503100113 | 60 | 161 | 0.0 | 0.0 | 0.00 | 0.00 | 0.00 | 85 | 1012.3 |
| 20260503081557 | 60 | 157 | 0.0 | 0.0 | 0.00 | 0.00 | 0.00 | 89 | 1012.8 |
| 20260503081510 | 47 | 174 | 2.0 | 4.0 | 0.00 | 0.00 | 0.00 | 67 | 1016.9 |
| 20260503071613 | 48 | 178 | 3.0 | 6.0 | 0.00 | 0.00 | 0.00 | 65 | 1017.3 |
| 20260503071540 | 59 | 155 | 0.0 | 0.0 | 0.00 | 0.00 | 0.00 | 90 | 1012.5 |
| 20260503070104 | 48 | 170 | 3.0 | 5.0 | 0.00 | 0.00 | 0.00 | 64 | 1017.4 |
| 20260503060110 | 46 | 201 | 1.0 | 4.0 | 0.00 | 0.00 | 0.00 | 72 | 1017.9 |